GW1000 Weather Reports


time (UTC)temp
C
wind
direction
speed
KPH
gust
KPH
rain 1hr
cm
rain 24hr
cm
rain mn
cm
humidity
%
barometer
mb
20260507081843 21 333 11.3 16.1 0.00 0.00 0.00 45 1013.7
20260507081339 21 358 11.3 20.9 0.00 0.00 0.00 46 1013.8
20260507080836 21 20 0.0 4.8 0.00 0.00 0.00 48 1013.9
20260507080332 21 4 9.7 17.7 0.00 0.00 0.00 49 1014.0
20260507075827 21 53 0.0 4.8 0.00 0.00 0.00 47 1014.1
20260507075324 21 24 1.6 11.3 0.00 0.00 0.00 48 1014.0
20260507074820 20 350 4.8 9.7 0.00 0.00 0.00 47 1014.0
20260507074318 20 343 14.5 16.1 0.00 0.00 0.00 47 1013.9
20260507073815 21 27 6.4 14.5 0.00 0.00 0.00 46 1013.9
20260507073312 20 25 8.0 12.9 0.00 0.00 0.00 49 1013.7
20260507072809 20 30 0.0 3.2 0.00 0.00 0.00 50 1013.8
20260507072308 20 339 12.9 14.5 0.00 0.00 0.00 51 1014.0
20260507071804 19 309 8.0 12.9 0.00 0.00 0.00 52 1014.0
20260507071300 20 0 4.8 12.9 0.00 0.00 0.00 51 1014.0
20260507070757 20 354 6.4 8.0 0.00 0.00 0.00 50 1014.0
20260507070254 20 341 6.4 8.0 0.00 0.00 0.00 51 1014.1
20260507065751 19 41 4.8 11.3 0.00 0.00 0.00 53 1014.3
20260507065247 19 294 11.3 14.5 0.00 0.00 0.00 53 1014.1
20260507064745 18 350 11.3 12.9 0.00 0.00 0.00 55 1014.4
20260507064244 18 53 11.3 14.5 0.00 0.00 0.00 55 1014.5
20260507063741 18 357 3.2 8.0 0.00 0.00 0.00 57 1014.5
20260507063237 18 12 6.4 11.3 0.00 0.00 0.00 59 1014.2
20260507062734 18 325 6.4 9.7 0.00 0.00 0.00 61 1014.2
20260507062231 17 27 8.0 14.5 0.00 0.00 0.00 61 1014.4
20260507061730 18 26 1.6 11.3 0.00 0.00 0.00 62 1014.4
20260507061227 17 30 3.2 8.0 0.00 0.00 0.00 62 1014.3
20260507060725 17 18 8.0 12.9 0.00 0.00 0.00 64 1014.3
20260507060222 17 340 6.4 11.3 0.00 0.00 0.00 64 1014.2
20260507055718 17 46 4.8 11.3 0.00 0.00 0.00 64 1014.3
20260507055213 17 336 6.4 11.3 0.00 0.00 0.00 65 1014.3
20260507054709 17 337 4.8 9.7 0.00 0.00 0.00 65 1014.4
20260507054207 17 342 4.8 8.0 0.00 0.00 0.00 66 1014.1
20260507053704 17 57 8.0 12.9 0.00 0.00 0.00 66 1014.3
20260507053202 17 65 6.4 14.5 0.00 0.00 0.00 67 1014.4
20260507052701 17 43 8.0 17.7 0.00 0.00 0.00 67 1014.2
20260507052156 17 70 1.6 11.3 0.00 0.00 0.00 68 1014.1
20260507051654 16 58 9.7 12.9 0.00 0.00 0.00 68 1014.1
20260507051150 17 1 9.7 12.9 0.00 0.00 0.00 68 1014.4
20260507050647 17 23 4.8 11.3 0.00 0.00 0.00 68 1014.2
20260507050144 17 58 3.2 3.2 0.00 0.00 0.00 69 1014.4
20260507045640 16 65 0.0 4.8 0.00 0.00 0.00 71 1014.4
20260507045137 16 91 1.6 3.2 0.00 0.00 0.00 72 1014.3
20260507044635 15 33 1.6 3.2 0.00 0.00 0.00 74 1014.1
20260507044131 15 40 1.6 4.8 0.00 0.00 0.00 75 1014.3
20260507043627 15 40 0.0 1.6 0.00 0.00 0.00 77 1014.0
20260507043124 14 59 0.0 1.6 0.00 0.00 0.00 78 1014.3
20260507042621 13 66 1.6 1.6 0.00 0.00 0.00 79 1014.1
20260507042116 13 52 1.6 3.2 0.00 0.00 0.00 81 1014.3
20260507041613 13 63 1.6 3.2 0.00 0.00 0.00 82 1014.3
20260507041109 12 123 3.2 8.0 0.00 0.00 0.00 83 1014.1
20260507040606 12 34 3.2 3.2 0.00 0.00 0.00 83 1014.3
20260507035558 12 78 0.0 4.8 0.00 0.00 0.00 84 1013.9
20260507035055 12 78 0.0 4.8 0.00 0.00 0.00 84 1014.1
20260507034552 12 69 3.2 3.2 0.00 0.00 0.00 85 1013.9
20260507034050 11 31 0.0 0.0 0.00 0.00 0.00 85 1013.8
20260507033548 11 67 0.0 1.6 0.00 0.00 0.00 85 1014.0
20260507033044 11 72 0.0 1.6 0.00 0.00 0.00 85 1013.9
20260507032541 11 67 1.6 8.0 0.00 0.00 0.00 85 1013.8
20260507032037 11 140 1.6 3.2 0.00 0.00 0.00 85 1013.6
20260507031534 11 63 0.0 4.8 0.00 0.00 0.00 85 1013.7
20260507031031 11 73 0.0 3.2 0.00 0.00 0.00 85 1013.7
20260507030528 11 72 1.6 3.2 0.00 0.00 0.00 86 1013.5
20260507030026 11 74 1.6 1.6 0.00 0.00 0.00 86 1013.5
20260507025522 11 43 0.0 1.6 0.00 0.00 0.00 86 1013.6
20260507025020 11 80 0.0 3.2 0.00 0.00 0.00 86 1013.5
20260507024517 11 67 4.8 4.8 0.00 0.00 0.00 86 1013.3
20260507024014 11 42 0.0 0.0 0.00 0.00 0.00 85 1013.6
20260507023510 11 94 0.0 0.0 0.00 0.00 0.00 86 1013.3
20260507023008 11 73 0.0 1.6 0.00 0.00 0.00 85 1013.4
20260507022504 11 82 1.6 1.6 0.00 0.00 0.00 85 1013.3
20260507021959 11 96 1.6 1.6 0.00 0.00 0.00 85 1013.2
20260507021455 11 56 0.0 1.6 0.00 0.00 0.00 85 1013.3
20260507020953 11 59 0.0 1.6 0.00 0.00 0.00 85 1013.3
20260507020449 11 78 0.0 1.6 0.00 0.00 0.00 85 1013.2
20260507015946 11 68 0.0 1.6 0.00 0.00 0.00 85 1013.1
20260507015445 11 70 0.0 1.6 0.00 0.00 0.00 85 1012.9
20260507014942 11 52 0.0 0.0 0.00 0.00 0.00 85 1013.1
20260507014439 11 52 0.0 1.6 0.00 0.00 0.00 85 1013.1
20260507013935 11 86 0.0 0.0 0.00 0.00 0.00 85 1013.2
20260507013432 11 72 1.6 3.2 0.00 0.00 0.00 85 1013.3
20260507012929 11 74 1.6 3.2 0.00 0.00 0.00 85 1013.3
20260507012426 11 47 0.0 0.0 0.00 0.00 0.00 85 1013.2
20260507011922 11 66 0.0 1.6 0.00 0.00 0.00 85 1013.2
20260507011419 11 62 0.0 1.6 0.00 0.00 0.00 85 1013.3
20260507010913 11 28 0.0 0.0 0.00 0.00 0.00 85 1013.3
20260507010408 11 125 1.6 1.6 0.00 0.00 0.00 85 1013.1
20260507005906 11 345 1.6 1.6 0.00 0.00 0.00 85 1013.2
20260507005403 11 27 0.0 1.6 0.00 0.00 0.00 84 1013.5
20260507004859 11 359 0.0 1.6 0.00 0.00 0.00 84 1013.3
20260507004356 11 1 0.0 3.2 0.00 0.00 0.00 84 1013.3
20260507003853 11 3 1.6 3.2 0.00 0.00 0.00 84 1013.2
20260507003349 11 6 0.0 1.6 0.00 0.00 0.00 84 1013.6
20260507002844 11 67 0.0 1.6 0.00 0.00 0.00 84 1013.2
20260507002340 11 359 1.6 3.2 0.00 0.00 0.00 84 1013.2
20260507001838 11 13 0.0 1.6 0.00 0.00 0.00 84 1013.2
20260507001334 11 69 0.0 4.8 0.00 0.00 0.00 84 1013.5
20260507000831 11 26 0.0 1.6 0.00 0.00 0.00 84 1013.4
20260507000328 11 86 3.2 3.2 0.00 0.00 0.00 84 1013.3
20260506235823 11 59 0.0 0.0 0.00 0.00 0.00 83 1013.3
20260506235320 11 143 0.0 1.6 0.00 0.00 0.00 84 1013.3
20260506234816 11 18 1.6 1.6 0.00 0.00 0.00 83 1013.6
20260506234314 11 38 1.6 3.2 0.00 0.00 0.00 84 1013.6
20260506233811 11 52 0.0 1.6 0.00 0.00 0.00 84 1013.7
20260506233307 11 52 1.6 1.6 0.00 0.00 0.00 84 1013.4
20260506232804 11 333 1.6 1.6 0.00 0.00 0.00 84 1013.5
20260506232259 11 37 0.0 0.0 0.00 0.00 0.00 83 1013.6
20260506231751 11 58 0.0 0.0 0.00 0.00 0.00 84 1013.4
20260506231250 11 0 0.0 1.6 0.00 0.00 0.00 83 1013.6
20260506230746 11 1 0.0 1.6 0.00 0.00 0.00 83 1013.5
20260506230243 11 326 1.6 1.6 0.00 0.00 0.00 83 1013.6
20260506225740 11 42 0.0 1.6 0.00 0.00 0.00 83 1013.4
20260506225237 11 87 0.0 1.6 0.00 0.00 0.00 83 1013.3
20260506224733 11 324 0.0 3.2 0.00 0.00 0.00 83 1013.4
20260506224231 11 14 1.6 1.6 0.00 0.00 0.00 83 1013.7
20260506223727 12 1 0.0 0.0 0.00 0.00 0.00 83 1013.7
20260506223222 12 353 0.0 1.6 0.00 0.00 0.00 83 1013.6
20260506222719 12 2 0.0 1.6 0.00 0.00 0.00 83 1013.6
20260506222214 12 358 0.0 1.6 0.00 0.00 0.00 83 1013.7
20260506221712 12 11 0.0 0.0 0.00 0.00 0.00 83 1013.6
20260506221210 12 337 1.6 1.6 0.00 0.00 0.00 82 1013.7
20260506220707 12 7 1.6 3.2 0.00 0.00 0.00 82 1013.7
20260506220202 12 35 0.0 1.6 0.00 0.00 0.00 82 1013.9
20260506215659 12 69 0.0 0.0 0.00 0.00 0.00 82 1013.9
20260506215154 12 96 0.0 1.6 0.00 0.00 0.00 82 1014.0
20260506214646 12 29 0.0 1.6 0.00 0.00 0.00 82 1014.0
20260506214143 12 21 0.0 1.6 0.00 0.00 0.00 81 1013.9
20260506213642 12 12 0.0 1.6 0.00 0.00 0.00 81 1014.0
20260506213138 12 348 0.0 1.6 0.00 0.00 0.00 81 1014.1
20260506212635 12 48 0.0 3.2 0.00 0.00 0.00 81 1014.1
20260506212130 12 91 3.2 3.2 0.00 0.00 0.00 81 1014.0
20260506211626 12 41 0.0 0.0 0.00 0.00 0.00 81 1014.0
20260506211123 12 28 0.0 1.6 0.00 0.00 0.00 80 1014.0
20260506210620 12 101 0.0 3.2 0.00 0.00 0.00 80 1013.9
20260506210116 13 86 3.2 3.2 0.00 0.00 0.00 80 1014.0
20260506205613 13 38 0.0 1.6 0.00 0.00 0.00 80 1013.9
20260506205108 13 51 1.6 3.2 0.00 0.00 0.00 80 1014.1
20260506204607 13 67 0.0 0.0 0.00 0.00 0.00 80 1014.1
20260506204103 13 80 0.0 1.6 0.00 0.00 0.00 80 1014.2
20260506203601 13 61 0.0 1.6 0.00 0.00 0.00 79 1014.0
20260506203057 13 62 1.6 1.6 0.00 0.00 0.00 79 1014.1
20260506202555 13 69 0.0 3.2 0.00 0.00 0.00 79 1014.2
20260506202051 13 69 0.0 3.2 0.00 0.00 0.00 79 1014.1
20260506201549 13 93 0.0 0.0 0.00 0.00 0.00 79 1014.3
20260506201045 13 94 0.0 0.0 0.00 0.00 0.00 79 1014.2
20260506200541 13 93 0.0 1.6 0.00 0.00 0.00 78 1014.3
20260506200038 13 69 0.0 1.6 0.00 0.00 0.00 78 1014.2
20260506195535 13 41 0.0 1.6 0.00 0.00 0.00 78 1014.5
20260506195031 13 347 1.6 1.6 0.00 0.00 0.00 78 1014.4
20260506194529 13 22 1.6 1.6 0.00 0.00 0.00 77 1014.3
20260506194026 13 56 0.0 0.0 0.00 0.00 0.00 77 1014.3
20260506193523 14 59 1.6 1.6 0.00 0.00 0.00 77 1014.3
20260506193020 13 67 0.0 0.0 0.00 0.00 0.00 77 1014.2
20260506192517 14 99 0.0 1.6 0.00 0.00 0.00 76 1014.4
20260506192013 14 68 0.0 1.6 0.00 0.00 0.00 76 1014.2
20260506191510 14 80 0.0 4.8 0.00 0.00 0.00 76 1014.3
20260506191006 14 92 0.0 3.2 0.00 0.00 0.00 75 1014.2
20260506190503 15 50 0.0 1.6 0.00 0.00 0.00 75 1014.1
20260506185959 15 79 0.0 0.0 0.00 0.00 0.00 74 1014.0
20260506185457 15 84 1.6 1.6 0.00 0.00 0.00 74 1014.2
20260506184953 15 84 1.6 3.2 0.00 0.00 0.00 74 1014.2
20260506184451 15 93 0.0 3.2 0.00 0.00 0.00 74 1014.2
20260506183948 15 112 0.0 0.0 0.00 0.00 0.00 74 1014.0
20260506183444 15 112 0.0 0.0 0.00 0.00 0.00 74 1013.9
20260506182941 15 112 0.0 1.6 0.00 0.00 0.00 73 1013.9
20260506182438 15 112 0.0 0.0 0.00 0.00 0.00 73 1014.1
20260506181936 15 112 0.0 1.6 0.00 0.00 0.00 73 1014.1
20260506181433 15 141 1.6 1.6 0.00 0.00 0.00 73 1014.1
20260506180930 15 171 1.6 3.2 0.00 0.00 0.00 73 1014.1
20260506180426 15 44 0.0 0.0 0.00 0.00 0.00 73 1013.7
20260506175923 15 44 0.0 0.0 0.00 0.00 0.00 72 1013.8
20260506175419 15 38 0.0 1.6 0.00 0.00 0.00 72 1013.6
20260506174916 15 81 0.0 1.6 0.00 0.00 0.00 72 1013.5
20260506174414 15 216 0.0 0.0 0.00 0.00 0.00 72 1013.7
20260506173911 16 217 1.6 1.6 0.00 0.00 0.00 72 1013.5
20260506173408 16 18 0.0 1.6 0.00 0.00 0.00 71 1013.4
20260506172906 16 20 0.0 1.6 0.00 0.00 0.00 71 1013.5
20260506172402 16 26 1.6 1.6 0.00 0.00 0.00 70 1013.4
20260506171859 16 23 1.6 3.2 0.00 0.00 0.00 70 1013.3
20260506171356 16 44 0.0 1.6 0.00 0.00 0.00 70 1013.3
20260506170853 16 17 0.0 1.6 0.00 0.00 0.00 70 1013.3
20260506170349 16 319 4.8 8.0 0.00 0.00 0.00 69 1013.1
20260506165843 16 351 4.8 8.0 0.00 0.00 0.00 69 1013.1
20260506165341 16 4 3.2 8.0 0.00 0.00 0.00 69 1013.1
20260506164836 16 336 3.2 8.0 0.00 0.00 0.00 69 1013.1
20260506164333 16 339 3.2 8.0 0.00 0.00 0.00 68 1012.9
20260506163831 17 347 8.0 11.3 0.00 0.00 0.00 68 1013.2
20260506163325 17 348 4.8 9.7 0.00 0.00 0.00 67 1013.0
20260506162821 17 347 8.0 12.9 0.00 0.00 0.00 67 1012.8
20260506162319 17 349 8.0 12.9 0.00 0.00 0.00 66 1012.8
20260506161817 17 329 9.7 12.9 0.00 0.00 0.00 66 1013.1
20260506161314 17 350 11.3 12.9 0.00 0.00 0.00 65 1013.0
20260506160811 17 265 6.4 14.5 0.00 0.00 0.00 65 1012.9
20260506160307 17 326 11.3 17.7 0.00 0.00 0.00 64 1012.6
20260506155806 17 337 12.9 14.5 0.00 0.00 0.00 63 1012.6
20260506155305 18 358 6.4 16.1 0.00 0.00 0.00 63 1012.5
20260506153410 18 297 8.0 14.5 0.00 0.00 0.00 63 1012.3
20260506152907 18 337 11.3 14.5 0.00 0.00 0.00 62 1012.5
20260506152404 18 350 6.4 12.9 0.00 0.00 0.00 60 1012.3
20260506151903 19 291 11.3 16.1 0.00 0.00 0.00 59 1012.5
20260506151359 19 41 9.7 17.7 0.00 0.00 0.00 59 1012.2
20260506150857 19 272 11.3 16.1 0.00 0.00 0.00 58 1012.4
20260506150353 19 351 11.3 16.1 0.00 0.00 0.00 58 1012.3
20260506145850 19 287 11.3 14.5 0.00 0.00 0.00 56 1012.2
20260506145346 19 351 8.0 14.5 0.00 0.00 0.00 56 1012.4
20260506144844 19 260 12.9 14.5 0.00 0.00 0.00 55 1012.3
20260506144340 20 288 8.0 12.9 0.00 0.00 0.00 54 1012.5
20260506143839 20 358 4.8 12.9 0.00 0.00 0.00 54 1012.3
20260506143335 20 336 3.2 3.2 0.00 0.00 0.00 54 1012.2
20260506142834 20 352 11.3 14.5 0.00 0.00 0.00 53 1012.3
20260506142331 20 280 8.0 14.5 0.00 0.00 0.00 53 1012.3
20260506141829 20 359 6.4 14.5 0.00 0.00 0.00 54 1012.3
20260506141327 20 336 12.9 16.1 0.00 0.00 0.00 54 1012.3
20260506140825 20 1 8.0 12.9 0.00 0.00 0.00 55 1012.4
20260506140321 20 332 9.7 14.5 0.00 0.00 0.00 55 1012.3
20260506135818 19 289 9.7 17.7 0.00 0.00 0.00 56 1012.3
20260506135315 20 348 14.5 16.1 0.00 0.00 0.00 56 1012.5
20260506134811 20 2 9.7 12.9 0.00 0.00 0.00 54 1012.3
20260506134308 20 359 1.6 12.9 0.00 0.00 0.00 56 1012.6
20260506133805 20 319 12.9 20.9 0.00 0.00 0.00 57 1012.7
20260506133302 20 320 14.5 20.9 0.00 0.00 0.00 57 1012.5
20260506132758 19 311 3.2 9.7 0.00 0.00 0.00 58 1012.5
20260506132256 19 286 11.3 16.1 0.00 0.00 0.00 57 1012.3
20260506131754 20 331 14.5 16.1 0.00 0.00 0.00 57 1012.4
20260506131249 19 22 14.5 17.7 0.00 0.00 0.00 58 1012.5
20260506130746 19 347 8.0 11.3 0.00 0.00 0.00 58 1012.6
20260506130243 19 347 6.4 11.3 0.00 0.00 0.00 59 1012.9
20260506125741 18 328 6.4 11.3 0.00 0.00 0.00 59 1012.9
20260506125239 19 325 9.7 12.9 0.00 0.00 0.00 59 1012.8
20260506124737 19 343 11.3 17.7 0.00 0.00 0.00 59 1012.9
20260506124234 19 18 1.6 14.5 0.00 0.00 0.00 59 1012.9
20260506123732 19 334 11.3 16.1 0.00 0.00 0.00 59 1013.1
20260506123230 19 339 11.3 16.1 0.00 0.00 0.00 59 1012.9
20260506122727 19 352 4.8 11.3 0.00 0.00 0.00 59 1013.1
20260506122224 19 323 12.9 14.5 0.00 0.00 0.00 59 1013.3
20260506121722 19 13 6.4 9.7 0.00 0.00 0.00 59 1013.2
20260506121218 19 345 8.0 9.7 0.00 0.00 0.00 59 1013.0
20260506120716 19 40 4.8 11.3 0.00 0.00 0.00 61 1013.3
20260506120214 19 358 12.9 12.9 0.00 0.00 0.00 60 1013.2
20260506115711 19 33 3.2 11.3 0.00 0.00 0.00 61 1013.3
20260506115209 19 339 6.4 11.3 0.00 0.00 0.00 62 1013.3
20260506114707 19 348 9.7 11.3 0.00 0.00 0.00 62 1013.4
20260506114204 19 355 6.4 8.0 0.00 0.00 0.00 62 1013.3
20260506113703 20 2 6.4 9.7 0.00 0.00 0.00 62 1013.3
20260506113200 19 16 4.8 9.7 0.00 0.00 0.00 62 1013.5
20260506112655 19 32 1.6 12.9 0.00 0.00 0.00 63 1013.5
20260506112154 19 359 4.8 14.5 0.00 0.00 0.00 63 1013.4
20260506111651 18 354 6.4 11.3 0.00 0.00 0.00 62 1013.6
20260506111149 18 344 8.0 9.7 0.00 0.00 0.00 62 1013.7
20260506110646 18 337 6.4 12.9 0.00 0.00 0.00 64 1013.5
20260506110143 18 57 3.2 11.3 0.00 0.00 0.00 65 1013.7
20260506105640 18 6 9.7 12.9 0.00 0.00 0.00 64 1013.6
20260506105137 18 11 1.6 11.3 0.00 0.00 0.00 64 1013.4
20260506104634 19 350 11.3 12.9 0.00 0.00 0.00 64 1013.4
20260506104132 18 351 6.4 9.7 0.00 0.00 0.00 64 1013.5
20260506103629 20 342 12.9 14.5 0.00 0.00 0.00 61 1013.6
20260506103126 19 340 3.2 8.0 0.00 0.00 0.00 60 1013.5
20260506102624 18 342 8.0 12.9 0.00 0.00 0.00 61 1013.5
20260506102121 19 340 9.7 12.9 0.00 0.00 0.00 60 1013.7
20260506101618 19 272 6.4 12.9 0.00 0.00 0.00 59 1013.5
20260506101114 19 352 9.7 12.9 0.00 0.00 0.00 59 1013.7
20260506100613 18 321 4.8 11.3 0.00 0.00 0.00 60 1013.8
20260506100110 18 304 4.8 14.5 0.00 0.00 0.00 61 1013.9
20260506095609 18 336 14.5 14.5 0.00 0.00 0.00 62 1013.8
20260506095105 18 305 6.4 8.0 0.00 0.00 0.00 63 1013.7
20260506094603 18 262 9.7 14.5 0.00 0.00 0.00 63 1013.6
20260506094100 18 275 8.0 11.3 0.00 0.00 0.00 62 1013.9
20260506093559 18 319 4.8 9.7 0.00 0.00 0.00 63 1013.9
20260506093056 18 307 9.7 12.9 0.00 0.00 0.00 63 1013.7
20260506092554 18 245 6.4 12.9 0.00 0.00 0.00 63 1013.7
20260506092050 18 327 4.8 9.7 0.00 0.00 0.00 64 1013.8
20260506091549 18 295 6.4 11.3 0.00 0.00 0.00 63 1013.9
20260506091046 18 349 4.8 4.8 0.00 0.00 0.00 64 1013.9
20260506090543 18 281 6.4 11.3 0.00 0.00 0.00 64 1013.5
20260506090039 18 239 11.3 12.9 0.00 0.00 0.00 64 1013.8
20260506085536 18 319 8.0 11.3 0.00 0.00 0.00 63 1013.9
20260506085033 18 332 11.3 12.9 0.00 0.00 0.00 63 1013.7
20260506084530 18 332 12.9 14.5 0.00 0.00 0.00 62 1013.8
20260506084026 18 254 9.7 14.5 0.00 0.00 0.00 62 1013.9
20260506083523 18 352 4.8 9.7 0.00 0.00 0.00 62 1013.9
20260506083021 18 247 8.0 11.3 0.00 0.00 0.00 62 1013.9
20260506082517 18 243 9.7 16.1 0.00 0.00 0.00 61 1013.9
20260506082013 18 339 8.0 22.5 0.00 0.00 0.00 62 1013.7